Regional Weather Roundup
Issued by NWS

Home | Current Version | Previous Version | Graphics & Text | Print | Product List | Glossary On
Versions: 1 2 3 4 5 6 7 8 9 10 11 12 13 14 15 16 17 18 19 20 21 22 23 24 25 26 27 28 29 30 31 32 33 34 35 36 37 38 39 40 41 42 43 44 45 46 47 48 49 50
991
ASUS45 KTFX 221010
RWRMT
MONTANA REGIONAL WEATHER ROUNDUP
NATIONAL WEATHER SERVICE GREAT FALLS MT
400 AM MDT SAT JUL 22 2017

NOTE: "FAIR" INDICATES FEW OR NO CLOUDS BELOW 12000 FEET WITH NO
SIGNIFICANT WEATHER AND/OR OBSTRUCTIONS TO VISIBILITY.

MTZ001>007-043-221100-
WEST OF THE DIVIDE

CITY           SKY/WX    TMP DP  RH WIND       PRES   REMARKS
KALISPELL      CLEAR     48  41  76 CALM      30.14R
MISSOULA       CLEAR     55  36  48 CALM      30.18R
BUTTE          CLEAR     46  31  55 SE6       30.27R
MULLAN PASS    CLEAR     53  32  44 VRB3      30.28S
ANACONDA         N/A     50  30  46 SW6       30.24S
DEER LODGE       N/A     46  34  61 CALM      30.25R
EUREKA           N/A     55  43  62 MISG      30.13R
HAMILTON         N/A     52  36  54 CALM      30.18S
LIBBY            N/A     52  39  62 CALM      30.14R
$$

MTZ008-052>055-221100-
SOUTHWEST MONTANA

CITY           SKY/WX    TMP DP  RH WIND       PRES   REMARKS
BOZEMAN        CLEAR     52  39  61 S7        30.19S
DILLON         CLEAR     50  24  36 SE8       30.22S
W YELLOWSTONE  CLOUDY    37  30  75 CALM      30.30R
ENNIS          MOCLDY    50  28  43 CALM      30.28R
THREE FORKS      N/A     48  37  65 CALM      30.16R
$$

MTZ009-010-012-014-046-048-049-054-221100-
EAST SLOPES AND CENTRAL MONTANA

CITY           SKY/WX    TMP DP  RH WIND       PRES   REMARKS
CUT BANK       PTCLDY    48  42  80 CALM      30.14S
GREAT FALLS    PTCLDY    58  37  45 E7        30.14S
HELENA         PTCLDY    63  34  33 CALM      30.15S
CHOTEAU          N/A     55  41  58 CALM      30.16S
$$

MTZ011-013-016-021-045-047-050-051-221100-
NORTH CENTRAL MONTANA

CITY           SKY/WX    TMP DP  RH WIND       PRES   REMARKS
HAVRE          CLEAR     51  40  65 SW5       30.09R
LEWISTOWN      CLEAR     49  33  54 SE5       30.16R
N BAR RANCH      N/A     55  28  35 VRB6      30.19S
CHINOOK          N/A     52  45  76 W6        30.08R
$$

MTZ017>020-022>027-061-062-221100-
NORTHEAST MONTANA

CITY           SKY/WX    TMP DP  RH WIND       PRES   REMARKS
GLASGOW        CLOUDY    60  40  47 NW7       30.01R
JORDAN           N/A     52  33  48 W6        30.05R
SIDNEY         CLEAR     54  42  64 CALM      29.98R
WOLF POINT     CLEAR     56  43  61 W5        29.99R
MALTA          PTCLDY    55  45  67 W6        30.05R
PLENTYWOOD       N/A     55  46  71 CALM      29.97R
POPLAR           N/A     54  43  66 N5        29.99R
$$

MTZ028>42-056>058-221100-
SOUTHCENTRAL AND SOUTHEAST MONTANA

CITY           SKY/WX    TMP DP  RH WIND       PRES   REMARKS
BAKER          CLEAR     54  37  52 W3        30.02S
BILLINGS       CLEAR     62  26  25 NW6       30.11R
LIVINGSTON     CLEAR     48  32  53 W5        30.19R
MILES CITY     CLEAR     59  29  31 NW8       30.02R
BIG TIMBER     CLEAR     55  32  41 W9        30.20S
FORSYTH          N/A     63  32  31 CALM      30.04R
LAUREL           N/A     61  26  26 CALM      30.10S
$$

REGIONAL REPORTS...DAKOTAS

CITY           SKY/WX    TMP DP  RH WIND       PRES   REMARKS
WILLISTON      CLEAR     56  47  71 N3        29.95R
MINOT          CLEAR     60  52  74 SW9       29.88R
DICKINSON      CLEAR     53  47  79 W6        29.96R
BEACH            N/A     50  46  87 MISG      30.04R
CROSBY           N/A     54  54 100 W8        29.93S
TIOGA            N/A     52  52 100 SW7       29.95S
WATFORD CITY     N/A     52  48  87 SW5       29.96R
BISMARCK       CLEAR     63  61  93 W6        29.91R
GRAND FORKS    FOG       68  68 100 CALM      29.77F VSB 1/4
FARGO          CLOUDY    67  65  93 SE6       29.79F
BUFFALO SD       N/A     65  40  39 N7        29.95S
RAPID CITY     PTCLDY    63  43  48 N9        30.00S
$$

REGIONAL REPORTS...WYOMING/IDAHO/WASHINGTON

CITY           SKY/WX    TMP DP  RH WIND       PRES   REMARKS
GILLETTE       CLOUDY    56  39  53 CALM      30.08R
SHERIDAN       CLEAR     62  40  44 W7        30.10R
BUFFALO WY     CLEAR     65  36  34 NW10      30.15S
CODY           CLEAR     67  28  23 NW5       30.19S
YELLOWSTONE LA   N/A     38  35  89 NW3       30.38S
IDAHO FALLS    CLEAR     55  44  66 CALM      30.14R
BOISE          CLEAR     62  44  51 SW6       30.07R
SPOKANE        PTCLDY    61  39  44 S5        30.13R
$$

REGIONAL REPORTS...ALBERTA

CITY           SKY/WX    TMP DP  RH WIND       PRES   REMARKS
EDMONTON       CLEAR     57  54  88 NW6       29.97S
CALGARY        MOCLDY    52  41  66 S5        30.09S
LETHBRIDGE     CLEAR     48  43  81 SW8       30.09S
MEDICINE HAT   CLEAR     52  48  87 SW5       30.05S
WATERTON GATE    N/A     50  41  71 SW6         N/A
CARDSTON         N/A     50  43  76 S6          N/A
ONEFOUR          N/A     52  45  76 NW9         N/A
$$

REGIONAL REPORTS...SASKATCHEWAN

CITY           SKY/WX    TMP DP  RH WIND       PRES   REMARKS
SWIFT CURRENT  CLEAR     52  50  93 W10       29.99R
REGINA         FOG       48  48 100 W7        29.93R VSB 3/4
SASKATOON      PTCLDY    50  48  93 NW3       29.94S
CYPRESS HILLS    N/A     54  46  76 NW8         N/A
VAL MARIE        N/A     48  41  76 NW7         N/A
ROCKGLEN         N/A     54  48  82 W9          N/A
ASSINIBOIA       N/A     52  52 100 SW5         N/A
$$




USA.gov is the U.S. government's official web portal to all federal, state and local government web resources and services.